[[{"header":{"parameterUnit":"m.s-1","parameterCategory":1,"la1":30.2991,"la2":30.254,"lo1":-89.0895,"lo2":-89.0444,"dy":0.0017,"dx":0.0017,"nx":28,"ny":28,"refTime":"2025-01-29T09:00:00:Z","depth":0,"parameterNumber":2,"parameterNumberName":"U-component_of_WINDS"},"data":[0,0,0,0,0,0,0,0,0,0,0,0,0,0,0,0,0,0,0,0,0,0,0,0,0,0,0,0,0,0,0,0,0,0,0,0,0,0,0,0,0,0,0,0,0,0,0,0,0,0,0,0,0,0,0,0,0,0,-1.257,-1.257,0,-1.252,-1.2519,-1.2519,-1.2457,-1.2456,-1.2456,-1.2455,-1.2404,-1.2403,-1.2403,0,0,0,0,0,0,0,0,0,0,0,0,0,-1.2616,-1.2616,-1.257,-1.257,-1.2569,-1.252,-1.2519,-1.2518,-1.2458,-1.2456,-1.2455,-1.2454,-1.2404,-1.2403,-1.2403,0,0,0,0,0,0,0,0,0,0,0,0,0,-1.2584,-1.2616,-1.257,-1.2533,-1.2529,-1.252,-1.2519,-1.2518,-1.2458,-1.2456,-1.2455,-1.2454,-1.2404,-1.2403,-1.2403,-1.2427,0,0,-1.2401,-1.24,0,0,0,0,0,0,0,0,-1.2586,-1.2583,-1.2539,-1.2535,-1.2531,-1.2493,-1.2517,-1.2488,-1.2458,-1.2485,-1.2455,-1.2453,-1.2435,-1.2431,-1.2425,-1.2425,-1.2422,-1.2401,-1.24,-1.24,-1.24,0,0,0,0,0,0,0,-1.2588,-1.2584,-1.255,-1.2538,-1.2533,-1.2519,-1.2513,-1.2511,-1.2468,-1.2482,-1.2478,-1.2473,-1.2432,-1.2426,-1.2424,-1.2422,-1.2401,-1.24,-1.2399,-1.2399,-1.2441,-1.2442,0,0,0,0,0,0,-1.2596,-1.2587,-1.2552,-1.2549,-1.2556,-1.2519,-1.2513,-1.2507,-1.2468,-1.2461,-1.2474,-1.247,-1.2428,-1.2424,-1.2422,-1.2448,-1.24,-1.2399,-1.2399,-1.244,-1.2441,-1.2443,0,0,0,0,0,0,-1.2597,-1.2594,-1.2554,-1.2566,-1.256,-1.252,-1.2514,-1.2507,-1.25,-1.2462,-1.2454,-1.2475,-1.2427,-1.2422,-1.2427,-1.2446,-1.2399,-1.2398,-1.2438,-1.244,-1.2442,-1.2502,0,0,0,0,0,0,-1.2599,-1.2594,-1.2602,-1.2567,-1.256,-1.2559,-1.2515,-1.2507,-1.2499,-1.2493,-1.2461,-1.2454,-1.2425,-1.2428,-1.2426,-1.2444,-1.2398,-1.2436,-1.2439,-1.2441,-1.2498,-1.2506,-1.2513,0,0,0,0,0,-1.2601,-1.2621,-1.2603,-1.2599,-1.2569,-1.256,-1.2556,-1.2522,-1.2501,-1.2509,-1.2485,-1.2455,-1.2444,-1.2429,-1.2426,-1.2444,-1.2434,-1.2438,-1.2441,-1.2495,-1.2504,-1.2513,0,0,0,0,0,0,-1.2659,-1.2615,-1.2595,-1.2604,-1.2587,-1.255,-1.2559,-1.2533,-1.2521,-1.2516,-1.2475,-1.2468,-1.2478,-1.2461,-1.2445,-1.2467,-1.2435,-1.2438,-1.2477,-1.2486,-1.2493,-1.2496,-1.2397,0,0,0,0,0,-1.2673,-1.2669,-1.2631,-1.2643,-1.2635,-1.2599,-1.2594,-1.257,-1.255,-1.2542,-1.2518,-1.25,-1.2493,-1.2488,-1.2479,-1.2496,-1.2489,-1.2507,-1.2515,-1.2521,-1.2524,-1.2533,-1.2541,-1.2454,-1.2454,-1.2454,0,0,-1.2701,-1.2677,-1.2677,-1.2654,-1.2637,-1.2635,-1.2593,-1.2592,-1.259,-1.2541,-1.2544,-1.2526,-1.2504,-1.2515,-1.2518,-1.2501,-1.2547,-1.2526,-1.2531,-1.253,-1.2538,-1.2546,-1.2553,-1.2457,-1.2456,-1.2456,0,0,-1.2752,-1.2733,-1.2742,-1.2726,-1.2702,-1.2678,-1.2681,-1.2648,-1.2635,-1.2637,-1.2601,-1.2599,-1.2587,-1.2573,-1.2564,-1.2613,-1.2586,-1.2612,-1.265,-1.2659,-1.2666,-1.2672,-1.269,-1.2697,-1.2615,-1.2615,-1.2615,0,-1.279,-1.2785,-1.2749,-1.2751,-1.2743,-1.27,-1.2709,-1.2696,-1.267,-1.2666,-1.2647,-1.2633,-1.2614,-1.2622,-1.2635,-1.2629,-1.2631,-1.2614,-1.2668,-1.2673,-1.2678,-1.2695,-1.2702,-1.2618,-1.2618,-1.2617,-1.2617,0,-1.2834,-1.2831,-1.2841,-1.2818,-1.2811,-1.2816,-1.2782,-1.278,-1.2757,-1.2736,-1.274,-1.2717,-1.2703,-1.2704,-1.2681,-1.2709,-1.27,-1.2675,-1.2642,-1.2691,-1.2706,-1.2712,-1.2623,-1.2622,-1.2621,-1.262,0,0,-1.2917,-1.2876,-1.2881,-1.287,-1.2842,-1.2839,-1.2844,-1.2831,-1.283,-1.2815,-1.2818,-1.281,-1.2788,-1.2779,-1.2755,-1.2763,-1.2805,-1.2738,-1.2737,-1.2751,-1.2836,-1.2854,-1.2862,-1.2787,-1.2788,-1.2789,-1.2838,0,-1.2963,-1.2967,-1.2937,-1.295,-1.2948,-1.2909,-1.2913,-1.2897,-1.2878,-1.2874,-1.2853,-1.2848,-1.2819,-1.2813,-1.282,-1.2798,-1.2821,-1.2795,-1.2791,-1.2791,-1.2797,-1.287,-1.2888,-1.2935,-1.2844,-1.2845,-1.2845,0,-1.3016,-1.3004,-1.3017,-1.299,-1.2988,-1.2992,-1.2979,-1.2976,-1.2957,-1.2943,-1.2934,-1.2907,-1.2911,-1.2881,-1.2886,-1.2869,-1.2866,-1.2855,-1.2856,-1.2854,-1.282,-1.287,-1.2949,-1.2957,-1.2854,-1.2853,-1.2853,0,-1.3076,-1.3064,-1.307,-1.3063,-1.3031,-1.3035,-1.3022,-1.3003,-1.2998,-1.2987,-1.2983,-1.2973,-1.2968,-1.2961,-1.2932,-1.2913,-1.2942,-1.2909,-1.2931,-1.2932,-1.2938,-1.2937,-1.3018,-1.2937,-1.2937,-1.2936,-1.2936,0,-1.3129,-1.3139,-1.3097,-1.3101,-1.3112,-1.3077,-1.3089,-1.3072,-1.3056,-1.3057,-1.3023,-1.3025,-1.2987,-1.2985,-1.2963,-1.2972,-1.297,-1.2959,-1.2953,-1.2962,-1.2963,-1.2959,-1.2955,-1.2938,-1.2938,-1.2937,-1.2937,0,-1.3198,-1.317,-1.3175,-1.3145,-1.3138,-1.3147,-1.3122,-1.3126,-1.3106,-1.3108,-1.3106,-1.3075,-1.3071,-1.3043,-1.3033,-1.3018,-1.3035,-1.3023,-1.3041,-1.3037,-1.3061,-1.3059,-1.3141,-1.315,-1.3063,-1.3064,-1.3065,0,-1.3233,-1.324,-1.3212,-1.321,-1.3199,-1.3197,-1.3192,-1.316,-1.3156,-1.3138,-1.3144,-1.3137,-1.313,-1.3127,-1.3104,-1.3096,-1.3084,-1.3113,-1.3082,-1.3092,-1.3085,-1.3084,-1.3085,-1.3119,-1.312,-1.3121,-1.3122,0,-1.33,-1.3286,-1.328,-1.3271,-1.3266,-1.3257,-1.3245,-1.3246,-1.3211,-1.3209,-1.3205,-1.32,-1.3191,-1.3185,-1.3175,-1.3162,-1.3137,-1.3132,-1.3137,-1.3146,-1.3156,-1.3151,-1.3059,-1.313,-1.3129,-1.3129,-1.3128,-1.3128,-1.3353,-1.3358,-1.3339,-1.3335,-1.3323,-1.3314,-1.3316,-1.3297,-1.3293,-1.3283,-1.3265,-1.3264,-1.3248,-1.3231,-1.3221,-1.3221,-1.3205,-1.3212,-1.3214,-1.3216,-1.3221,-1.3157,-1.3219,-1.3218,-1.3218,-1.3218,-1.3218,0,-1.3418,-1.3405,-1.3401,-1.3387,-1.3384,-1.3361,-1.3348,-1.3347,-1.3347,-1.3334,-1.3328,-1.3325,-1.3321,-1.3298,-1.3291,-1.3296,-1.3284,-1.3295,-1.3294,-1.3292,-1.3235,-1.3231,-1.3305,-1.3305,-1.3305,-1.3305,-1.3305,-1.3305,-1.3451,-1.3459,-1.3444,-1.3446,-1.3433,-1.3432,-1.3427,-1.3419,-1.3409,-1.3406,-1.3403,-1.3388,-1.3372,-1.3364,-1.336,-1.3353,-1.3353,-1.3368,-1.3358,-1.3304,-1.3296,-1.3288,-1.3284,-1.3368,-1.3368,-1.3415,-1.3415,-1.3416]},{"header":{"parameterUnit":"m.s-1","parameterCategory":1,"la1":30.2991,"la2":30.254,"lo1":-89.0895,"lo2":-89.0444,"dy":0.0017,"dx":0.0017,"nx":28,"ny":28,"refTime":"2025-01-29T09:00:00:Z","depth":0,"parameterNumber":3,"parameterNumberName":"V-component_of_WINDS"},"data":[0,0,0,0,0,0,0,0,0,0,0,0,0,0,0,0,0,0,0,0,0,0,0,0,0,0,0,0,0,0,0,0,0,0,0,0,0,0,0,0,0,0,0,0,0,0,0,0,0,0,0,0,0,0,0,0,0,0,1.2818,1.2819,0,1.2852,1.2852,1.2853,1.2906,1.2907,1.2908,1.2909,1.2941,1.294,1.294,0,0,0,0,0,0,0,0,0,0,0,0,0,1.2799,1.2799,1.2818,1.2819,1.2819,1.2852,1.2852,1.2853,1.2906,1.2907,1.2909,1.291,1.2941,1.294,1.294,0,0,0,0,0,0,0,0,0,0,0,0,0,1.2817,1.2799,1.2818,1.285,1.2853,1.2852,1.2852,1.2853,1.2906,1.2908,1.2909,1.291,1.2941,1.2941,1.294,1.291,0,0,1.294,1.294,0,0,0,0,0,0,0,0,1.2816,1.2818,1.2845,1.2848,1.2851,1.2877,1.2857,1.2872,1.2906,1.2886,1.2909,1.2911,1.2918,1.292,1.2923,1.2911,1.2913,1.294,1.294,1.294,1.294,0,0,0,0,0,0,0,1.2815,1.2817,1.2832,1.2845,1.2849,1.2862,1.2866,1.286,1.2893,1.2888,1.2892,1.2895,1.292,1.2923,1.2924,1.2913,1.294,1.294,1.294,1.294,1.2879,1.2878,0,0,0,0,0,0,1.2809,1.2815,1.2831,1.2833,1.2837,1.2861,1.2866,1.2867,1.2893,1.2899,1.2894,1.2897,1.2922,1.2924,1.2925,1.2891,1.294,1.294,1.294,1.2881,1.2879,1.2877,0,0,0,0,0,0,1.2809,1.281,1.2829,1.2825,1.2829,1.286,1.2861,1.2867,1.287,1.2898,1.2904,1.2891,1.2923,1.2925,1.2914,1.2893,1.294,1.294,1.2883,1.288,1.2878,1.2824,0,0,0,0,0,0,1.2808,1.2809,1.2799,1.2825,1.2829,1.2818,1.2859,1.2866,1.287,1.2875,1.2897,1.2902,1.2925,1.2914,1.2914,1.2894,1.2939,1.2884,1.2881,1.2879,1.2827,1.282,1.2813,0,0,0,0,0,1.2807,1.2781,1.2798,1.2799,1.2816,1.2816,1.2819,1.2847,1.2868,1.2857,1.2875,1.2901,1.2896,1.2912,1.2912,1.2892,1.2886,1.2882,1.2879,1.283,1.2821,1.2813,0,0,0,0,0,0,1.2751,1.2785,1.2804,1.2786,1.2798,1.2825,1.2812,1.2836,1.2841,1.2846,1.288,1.2884,1.2868,1.2879,1.2897,1.2865,1.2895,1.2891,1.2858,1.2849,1.2842,1.284,1.2939,0,0,0,0,0,1.2736,1.2735,1.2765,1.2746,1.2751,1.2781,1.2782,1.2803,1.2816,1.2821,1.2839,1.285,1.2851,1.2851,1.2853,1.283,1.2835,1.2816,1.2809,1.2803,1.2799,1.2788,1.278,1.2866,1.2866,1.2866,0,0,1.2706,1.2725,1.2722,1.2735,1.2747,1.2744,1.2785,1.2779,1.2777,1.282,1.2811,1.2824,1.2839,1.2821,1.2814,1.283,1.2777,1.2799,1.2794,1.2793,1.2783,1.2775,1.2768,1.2864,1.2864,1.2864,0,0,1.265,1.2664,1.2651,1.2662,1.268,1.27,1.2697,1.2721,1.2732,1.2723,1.2755,1.2753,1.2754,1.2763,1.2768,1.2717,1.2741,1.2717,1.2679,1.2668,1.2661,1.2655,1.2637,1.263,1.2713,1.2713,1.2713,0,1.261,1.2608,1.264,1.2634,1.2638,1.2679,1.2665,1.2674,1.2691,1.2693,1.2711,1.2714,1.2726,1.2712,1.2699,1.2702,1.2699,1.2714,1.266,1.2654,1.2649,1.2632,1.2625,1.271,1.271,1.2711,1.2711,0,1.2558,1.2556,1.2543,1.256,1.2563,1.2553,1.2583,1.2582,1.2603,1.2621,1.2612,1.2629,1.2636,1.2634,1.2653,1.2622,1.2631,1.2654,1.2685,1.2637,1.2622,1.2615,1.2706,1.2707,1.2708,1.2708,0,0,1.2466,1.2503,1.2497,1.2506,1.2529,1.2527,1.2519,1.2527,1.2526,1.2536,1.253,1.253,1.2552,1.2557,1.2579,1.2568,1.2527,1.2593,1.2593,1.2579,1.2493,1.2475,1.2467,1.2543,1.2542,1.2541,1.2492,0,1.2415,1.2403,1.2432,1.2413,1.2411,1.245,1.2443,1.2456,1.2472,1.2473,1.2491,1.2491,1.252,1.2523,1.2515,1.2534,1.251,1.2538,1.2536,1.2536,1.2531,1.2459,1.244,1.2393,1.2486,1.2485,1.2484,0,1.2353,1.2362,1.2342,1.2368,1.2368,1.2361,1.2371,1.2371,1.2387,1.24,1.2407,1.2432,1.2425,1.2455,1.2446,1.2464,1.2465,1.2474,1.2473,1.2474,1.2507,1.2457,1.2378,1.2371,1.2475,1.2476,1.2476,0,1.2287,1.2295,1.2285,1.2291,1.232,1.2314,1.2325,1.2343,1.2346,1.2354,1.2357,1.2364,1.2367,1.2372,1.2398,1.2418,1.2386,1.2418,1.2395,1.2395,1.2386,1.2386,1.2306,1.2388,1.2388,1.2388,1.2388,0,1.2226,1.2213,1.2256,1.2249,1.2236,1.2269,1.2254,1.227,1.2285,1.2282,1.2315,1.2311,1.2347,1.2347,1.2367,1.2356,1.2358,1.2367,1.2373,1.2364,1.2363,1.2365,1.2369,1.2386,1.2387,1.2387,1.2387,0,1.2151,1.2179,1.217,1.2199,1.2206,1.2195,1.2219,1.2214,1.2233,1.2229,1.223,1.226,1.2262,1.2289,1.2296,1.231,1.229,1.2302,1.2285,1.2289,1.2265,1.2266,1.2183,1.2173,1.2261,1.226,1.2259,0,1.211,1.2101,1.2129,1.213,1.214,1.2141,1.2145,1.2178,1.218,1.2198,1.2191,1.2195,1.2201,1.2202,1.2224,1.2229,1.2241,1.2212,1.2242,1.2234,1.2241,1.2241,1.224,1.2205,1.2204,1.2203,1.2202,0,1.2034,1.2049,1.2053,1.2063,1.2067,1.2076,1.2087,1.2085,1.2122,1.2122,1.2125,1.213,1.2138,1.2142,1.2152,1.2163,1.2188,1.2192,1.2187,1.2178,1.2169,1.2173,1.2267,1.2194,1.2195,1.2195,1.2196,1.2196,1.1974,1.1968,1.1988,1.1992,1.2004,1.2014,1.201,1.203,1.2033,1.2043,1.2062,1.2062,1.2079,1.2095,1.2104,1.2104,1.2119,1.2112,1.211,1.2108,1.2103,1.2169,1.2106,1.2106,1.2106,1.2107,1.2107,0,1.19,1.1915,1.1918,1.1933,1.1937,1.1962,1.1975,1.1976,1.1976,1.199,1.1995,1.1998,1.2003,1.2025,1.2032,1.2028,1.2039,1.2028,1.2029,1.2031,1.2089,1.2093,1.2019,1.2019,1.2019,1.2019,1.2019,1.2019,1.1862,1.1853,1.187,1.1868,1.1882,1.1883,1.1889,1.1898,1.1909,1.1912,1.1916,1.1932,1.1949,1.1957,1.1962,1.1969,1.197,1.1955,1.1965,1.2018,1.2027,1.2035,1.2038,1.1955,1.1954,1.1907,1.1906,1.1906]}]]